sat.trackr.live / text

‹ back to catalog

STARLINK-30837

NORAD 58212 · 2023-170G

PAYLOAD ACTIVE UNKNOWN

§ Identity

Operator
Country
US
Launch date
2023-11-03
Launch site
AFETR
Launch vehicle
Mass (kg)
RCS (m²)

Purposes: comms

External: N2YO · Heavens-Above · Gunter

§ Orbital elements

Epoch: 2026-09-20T03:26:30.589440Z

Period
94.27 min
Inclination
43.0023°
Eccentricity
0.0000789
Mean motion
15.27578204 rev/d
Perigee alt
482.5 km
Apogee alt
483.6 km
Semi-major
6,861.2 km
B*
1.8391e-5
RAAN
176.4654°
Arg perigee
261.4587°
Mean anomaly
98.6176°
Rev number
16,003

§ Raw data

STARLINK-308371 58212U 23170G   26263.14340960  .00000244  00000+0  18391-4 0  99922 58212  43.0023 176.4654 0000789 261.4587  98.6176 15.27578204160030

JSON: /api/v1/satellites/58212 · /tle

For live sub-satellite position, see the globe view (requires WebGL).

§ Visibility from observer

Set your observer location to see the next 7 days of passes ≥ 10°. The values pass through the URL so the page stays shareable.

No JS? Fill the form by hand. The geolocation button needs JavaScript.